STARLINK-30933, 58410

Orbit data source: Space-Track

STARLINK-30933, 58410 is a payload satellite owned by SpaceX/Seattle (US) in LEO that was launched on Wed, 22 Nov 2023 UTC via an FALCON 9 launch vehicle from the Air Force Eastern Test Range (AFETR). Payload-class satellites include a variety of spacecraft equipped with specific instruments for various scientific and technological missions. These include communications satellites like Starlink; space stations such as the ISS; scientific satellites like the Hubble; Earth observation satellites from companies like Planet Labs, Umbra, and HawkEye 360; GPS; miniature CubeSats for education and research; and military/defense satellites.

Loading next visibility...
Identifier
58410, 2023-180J
Orbit
LEO
Country
Flag of USUS
Related business
Manufacturer
SpaceX/Seattle
Mission
Operational Commercial Communications
Bus & Motor
STARLINK V2M, Unknown motor
Mass
730 kg wet, ~700 kg dry
Launch date (UTC)
2023-11-22 (2 years ago)
Launch vehicle
FALCON 9
Launch site
Air Force Eastern Test Range (AFETR)
Object type
Payload
Rocket body
Debris
Shape & HBR
Box + 2 Pan, 14.5 m
Radar Cross Section
33.884 m², Large (>1 m²)

Expand to show TLE details & history
Last TLE update: 1 day ago

TLE from 1 day ago
0 STARLINK-30933
1 58410U 23180J   25249.65187532  .00004778  00000-0  18298-3 0  9998
2 58410  43.0000 226.0931 0001200 280.7680  79.3036 15.27590303101199
Epoch: 2025-09-06T15:38Z
TLE epoch observation values (Epoch: 2025-09-06T15:38:42.027Z)
Latitude
-0.00006°
Longitude
5.43529°
Altitude
482.641 km
Speed
7.626 km/s
True Right ascension
15h 04m 22s
True Declination
0° 00' 00"
Sunlit
Object was in daylight at epoch
Visualization orbit readout
Latitude
Unknown
Longitude
Unknown
Altitude
Unknown
Speed
Unknown
Apparent Right ascension
Unknown
Apparent Declination
Unknown
Sunlit
N/A
Visualization observer readout
Local Sidereal Time
11:45:42
Azimuth
Unknown
Elevation
Unknown
Doppler factor
Unknown
Orbital elements
Apogee altitude
485.787 km
Perigee altitude
484.14 km
Semi-major axis
6,863.1 km
Eccentricity
0.00012
Inclination
43°
RAAN
226.0931°
Arg. of periapsis
280.768°
True anomaly
79.31711°
Mean anomaly
79.3036°
Eccentric anomaly
79.31036°
Mean motion
3.81736 °/min
Orbital period
94.31 mins
BSTAR
0.00018298
Loading maneuver chart data...
Computing Atmospheric mass density...
Loading historical data...
Loading historical data...
Loading historical data...
Loading historical data...
Loading historical data...
Loading historical data...
Loading historical data...

Documentation

Showing up to 5 results
|